This demonstration page uses our WeatherBlox Daily Observations layout. Learn more.

Left ArrowRight Arrow

53.62937, 11.41316

Hourly Observations for January 10, 2016

Temp ( °F °C ) Dew Point ( °F °C ) Humidity (%) Winds ( mph kmh ) Pressure ( in mb ) Visibility ( mi km ) Precip ( " mm )
5:20 am 05:20 Mostly Cloudy 30 -1 30 -1 100 100 SE 12 19 29.44 997 4 6 N/A
5:50 am 05:50 Cloudy with Mist and Fog 30 -1 30 -1 100 100 ESE 15 24 29.44 997 3 5 N/A
6:20 am 06:20 Cloudy with Mist and Fog 30 -1 28 -2 93 93 SE 15 24 29.41 996 2 3 N/A
6:50 am 06:50 Cloudy with Mist and Fog 30 -1 30 -1 100 100 SE 14 22 29.41 996 1 2 N/A
7:20 am 07:20 Cloudy with Mist and Fog 30 -1 30 -1 100 100 ESE 14 22 29.41 996 1 2 N/A
7:50 am 07:50 Cloudy with Mist and Fog 30 -1 30 -1 100 100 ESE 10 17 29.38 995 1 1 N/A
8:20 am 08:20 Cloudy with Freezing Fog 32 0 30 -1 93 93 E 9 15 29.38 995 1 1 N/A
8:50 am 08:50 Cloudy with Mist and Fog 32 0 32 0 100 100 ESE 9 15 29.38 995 1 2 N/A
9:20 am 09:20 Cloudy with Mist and Fog 34 1 32 0 93 93 SE 10 17 29.38 995 3 4 N/A
9:50 am 09:50 Cloudy with Mist and Fog 34 1 34 1 100 100 ESE 10 17 29.38 995 3 5 N/A
10:20 am 10:20 Cloudy with Mist and Fog 34 1 34 1 100 100 ESE 13 20 29.35 994 3 5 N/A
10:50 am 10:50 Cloudy with Mist and Fog 34 1 34 1 100 100 ESE 13 20 29.35 994 3 5 N/A
11:20 am 11:20 Cloudy with Light Rain 34 1 34 1 100 100 ESE 10 17 29.35 994 3 5 N/A
11:50 am 11:50 Cloudy with Light Rain 36 2 34 1 93 93 SE 10 17 29.35 994 2 4 N/A
12:20 pm 12:20 Mostly Cloudy with Light Rain 36 2 34 1 93 93 SSE 15 24 29.32 993 3 5 N/A
12:50 pm 12:50 Cloudy with Light Rain 36 2 34 1 93 93 SSE 15 24 29.32 993 3 4 N/A
1:20 pm 13:20 Cloudy with Light Rain 36 2 34 1 93 93 SE 9 15 29.32 993 3 4 N/A
1:50 pm 13:50 Mostly Cloudy with Light Rain 36 2 36 2 100 100 SSE 14 22 29.32 993 3 5 N/A
2:20 pm 14:20 Mostly Cloudy 36 2 36 2 100 100 S 8 13 29.32 993 4 6 N/A
2:50 pm 14:50 Mostly Cloudy 36 2 36 2 100 100 S 9 15 29.32 993 4 6 N/A
3:20 pm 15:20 Mostly Cloudy with Drizzle 37 3 36 2 93 93 SSE 9 15 29.35 994 3 5 N/A
3:50 pm 15:50 Mostly Cloudy with Light Rain 37 3 36 2 93 93 S 9 15 29.32 993 4 6 N/A
4:20 pm 16:20 Mostly Cloudy 37 3 37 3 100 100 S 8 13 29.32 993 5 8 N/A
4:50 pm 16:50 Partly Cloudy 37 3 37 3 100 100 S 10 17 29.35 994 4 7 N/A
5:20 pm 17:20 Mostly Cloudy 37 3 37 3 100 100 S 9 15 29.35 994 6 9 N/A
5:50 pm 17:50 Mostly Cloudy 37 3 37 3 100 100 SSE 7 11 29.35 994 5 8 N/A

Powered by AerisWeather